TimeCDT,TemperatureF,Dew PointF,Humidity,Sea Level PressureIn,VisibilityMPH,Wind Direction,Wind SpeedMPH,Gust SpeedMPH,PrecipitationIn,Events,Conditions,WindDirDegrees,DateUTC
12:15 AM,59.0,59.0,100,29.99,5.0,NNW,3.5,-,N/A,,Overcast,330,2013-04-01 05:15:00
12:35 AM,59.0,59.0,100,29.99,7.0,NNW,3.5,-,N/A,,Overcast,330,2013-04-01 05:35:00
12:55 AM,59.0,59.0,100,29.99,7.0,Calm,Calm,-,N/A,,Overcast,0,2013-04-01 05:55:00
1:15 AM,57.2,57.2,100,29.99,3.0,Calm,Calm,-,N/A,,Overcast,0,2013-04-01 06:15:00
1:35 AM,59.0,59.0,100,29.99,0.8,NW,4.6,-,N/A,,Overcast,320,2013-04-01 06:35:00
1:55 AM,59.0,59.0,100,29.99,0.5,Calm,Calm,-,N/A,Fog,Fog,0,2013-04-01 06:55:00
2:15 AM,57.2,57.2,100,29.99,0.2,Calm,Calm,-,N/A,Fog,Fog,0,2013-04-01 07:15:00
2:35 AM,57.2,57.2,100,29.99,0.2,Calm,Calm,-,N/A,Fog,Fog,0,2013-04-01 07:35:00
3:15 AM,55.4,55.4,100,29.98,0.5,North,3.5,-,N/A,Fog,Fog,350,2013-04-01 08:15:00
3:35 AM,55.4,55.4,100,29.98,1.0,Calm,Calm,-,N/A,,Overcast,0,2013-04-01 08:35:00
3:55 AM,55.4,55.4,100,29.99,0.5,Calm,Calm,-,N/A,Fog,Fog,0,2013-04-01 08:55:00
4:15 AM,53.6,53.6,100,29.99,0.5,Calm,Calm,-,N/A,Fog,Fog,0,2013-04-01 09:15:00
4:35 AM,55.4,55.4,100,30.00,3.0,Calm,Calm,-,N/A,,Overcast,0,2013-04-01 09:35:00
4:55 AM,55.4,55.4,100,30.00,7.0,Calm,Calm,-,N/A,,Overcast,0,2013-04-01 09:55:00
5:15 AM,55.4,55.4,100,30.00,10.0,Calm,Calm,-,N/A,,Overcast,0,2013-04-01 10:15:00
5:35 AM,57.2,57.2,100,30.01,10.0,Calm,Calm,-,N/A,,Overcast,0,2013-04-01 10:35:00
5:55 AM,59.0,59.0,100,30.01,10.0,Calm,Calm,-,N/A,,Overcast,0,2013-04-01 10:55:00
6:15 AM,59.0,59.0,100,30.02,10.0,North,4.6,-,N/A,,Overcast,360,2013-04-01 11:15:00
6:35 AM,60.8,60.8,100,30.04,10.0,Calm,Calm,-,N/A,,Overcast,0,2013-04-01 11:35:00
6:55 AM,60.8,60.8,100,30.04,10.0,North,3.5,-,N/A,,Overcast,360,2013-04-01 11:55:00
7:15 AM,60.8,60.8,100,30.05,10.0,Calm,Calm,-,N/A,,Overcast,0,2013-04-01 12:15:00
7:35 AM,60.8,59.0,94,30.06,10.0,NNW,3.5,-,N/A,,Mostly Cloudy,340,2013-04-01 12:35:00
7:55 AM,60.8,60.8,100,30.06,10.0,Calm,Calm,-,N/A,,Mostly Cloudy,0,2013-04-01 12:55:00
8:15 AM,62.6,60.8,94,30.07,10.0,North,4.6,-,N/A,,Mostly Cloudy,10,2013-04-01 13:15:00
8:35 AM,64.4,60.8,88,30.07,10.0,Calm,Calm,-,N/A,,Mostly Cloudy,0,2013-04-01 13:35:00
8:55 AM,64.4,62.6,94,30.08,10.0,Calm,Calm,-,N/A,,Overcast,0,2013-04-01 13:55:00
9:15 AM,64.4,60.8,88,30.09,10.0,NE,4.6,-,N/A,,Overcast,40,2013-04-01 14:15:00
9:35 AM,64.4,60.8,88,30.09,10.0,ENE,4.6,-,N/A,,Overcast,60,2013-04-01 14:35:00
9:55 AM,68.0,62.6,83,30.09,10.0,ESE,3.5,-,N/A,,Overcast,110,2013-04-01 14:55:00
10:15 AM,68.0,62.6,83,30.10,10.0,SE,4.6,-,N/A,,Overcast,130,2013-04-01 15:15:00
10:35 AM,68.0,62.6,83,30.10,10.0,ESE,3.5,-,N/A,,Overcast,110,2013-04-01 15:35:00
11:15 AM,69.8,60.8,73,30.11,10.0,Calm,Calm,-,N/A,,Overcast,0,2013-04-01 16:15:00
11:35 AM,71.6,62.6,73,30.11,10.0,ESE,3.5,-,N/A,,Mostly Cloudy,120,2013-04-01 16:35:00
11:55 AM,71.6,60.8,69,30.11,10.0,ESE,4.6,-,N/A,,Scattered Clouds,110,2013-04-01 16:55:00
12:15 PM,71.6,60.8,69,30.10,10.0,East,4.6,-,N/A,,Clear,100,2013-04-01 17:15:00
12:35 PM,73.4,60.8,65,30.09,10.0,Calm,Calm,-,N/A,,Scattered Clouds,0,2013-04-01 17:35:00
1:15 PM,75.2,59.0,57,30.07,10.0,ENE,5.8,-,N/A,,Clear,70,2013-04-01 18:15:00
1:35 PM,77.0,59.0,54,30.07,10.0,SE,3.5,-,N/A,,Clear,130,2013-04-01 18:35:00
1:55 PM,77.0,59.0,54,30.06,10.0,ESE,3.5,-,N/A,,Scattered Clouds,120,2013-04-01 18:55:00
2:15 PM,77.0,57.2,50,30.05,10.0,Calm,Calm,-,N/A,,Scattered Clouds,0,2013-04-01 19:15:00
2:35 PM,77.0,57.2,50,30.04,10.0,ENE,6.9,-,N/A,,Clear,60,2013-04-01 19:35:00
2:55 PM,77.0,59.0,54,30.03,10.0,East,8.1,-,N/A,,Clear,80,2013-04-01 19:55:00
3:15 PM,78.8,59.0,51,30.02,10.0,ENE,6.9,-,N/A,,Clear,60,2013-04-01 20:15:00
3:35 PM,77.0,57.2,50,30.02,10.0,East,4.6,-,N/A,,Clear,80,2013-04-01 20:35:00
3:55 PM,78.8,57.2,47,30.01,10.0,NNE,4.6,-,N/A,,Clear,30,2013-04-01 20:55:00
4:15 PM,78.8,57.2,47,30.01,10.0,East,5.8,-,N/A,,Clear,90,2013-04-01 21:15:00
4:35 PM,78.8,57.2,47,30.00,10.0,ESE,9.2,-,N/A,,Clear,120,2013-04-01 21:35:00
4:55 PM,78.8,59.0,51,30.00,10.0,ESE,9.2,-,N/A,,Clear,110,2013-04-01 21:55:00
5:15 PM,78.8,57.2,47,30.00,10.0,East,4.6,-,N/A,,Clear,80,2013-04-01 22:15:00
5:35 PM,78.8,59.0,51,29.99,10.0,SE,6.9,-,N/A,,Clear,130,2013-04-01 22:35:00
6:15 PM,77.0,59.0,54,29.99,10.0,ESE,5.8,-,N/A,,Clear,120,2013-04-01 23:15:00
6:35 PM,77.0,57.2,50,29.99,10.0,ESE,6.9,-,N/A,,Clear,110,2013-04-01 23:35:00
6:55 PM,75.2,57.2,53,29.99,10.0,ESE,6.9,-,N/A,,Clear,110,2013-04-01 23:55:00
7:15 PM,73.4,59.0,61,29.99,10.0,East,3.5,-,N/A,,Clear,90,2013-04-02 00:15:00
7:35 PM,71.6,57.2,60,29.99,10.0,Calm,Calm,-,N/A,,Clear,0,2013-04-02 00:35:00
7:55 PM,69.8,59.0,68,30.00,10.0,Calm,Calm,-,N/A,,Clear,0,2013-04-02 00:55:00
8:15 PM,69.8,59.0,68,30.00,10.0,SSE,6.9,-,N/A,,Clear,150,2013-04-02 01:15:00
8:35 PM,68.0,62.6,83,30.01,10.0,SSE,5.8,-,N/A,,Clear,160,2013-04-02 01:35:00
8:55 PM,66.2,64.4,94,30.01,10.0,SSE,5.8,-,N/A,,Clear,150,2013-04-02 01:55:00
9:15 PM,64.4,62.6,94,30.01,10.0,South,5.8,-,N/A,,Clear,170,2013-04-02 02:15:00
9:35 PM,64.4,62.6,94,30.02,10.0,SSE,4.6,-,N/A,,Clear,160,2013-04-02 02:35:00
9:55 PM,64.4,62.6,94,30.03,10.0,SSE,4.6,-,N/A,,Clear,150,2013-04-02 02:55:00
10:15 PM,64.4,62.6,94,30.04,10.0,SSE,4.6,-,N/A,,Clear,160,2013-04-02 03:15:00
10:35 PM,62.6,62.6,100,30.05,10.0,SSE,4.6,-,N/A,,Clear,160,2013-04-02 03:35:00
10:55 PM,62.6,62.6,100,30.05,10.0,South,3.5,-,N/A,,Clear,170,2013-04-02 03:55:00
11:15 PM,62.6,62.6,100,30.05,10.0,Calm,Calm,-,N/A,,Clear,0,2013-04-02 04:15:00
11:35 PM,62.6,60.8,94,30.04,7.0,Calm,Calm,-,N/A,,Clear,0,2013-04-02 04:35:00
11:55 PM,60.8,60.8,100,30.04,7.0,Calm,Calm,-,N/A,,Clear,0,2013-04-02 04:55:00